Powrót do katalogu

STARLINK-37685

AktywnyŁącznośćVLEO
NORAD 69373·PAYLOAD·🇺🇸 United States

Wystrzelony Jun 4, 2026 z Cape Canaveral Space Force Station

Loading…

Następne Przeloty (najbliższe 24 godziny)

TLE

ŚwieżeSource: CelesTrak SupGP

Epoka: Sep 15, 2026, 03:21 UTC

1 69373C 26123W   26258.14006944 -.00005021  00000+0 -14836-3 0  2585
2 69373  53.1575 166.4514 0001312  72.6159 199.3426 15.34392655    18

Śledź STARLINK-37685 w czasie rzeczywistym z AllMySat

Download on the App Store